BAW9272 EGCC-EGLL

Flight info

Callsign BAW9272
Flight time N/A
Altitude 19000
Route LISTO L612 HON
Aircraft A20N/M-SDE2E3FGHIRWXY/LB1

Departure

Time N/A
Airport Manchester Airport (EGCC)

Arrival

Time 2026-05-05 19:48
Airport London Heathrow Airport (EGLL)
Time Latitude Longitude Altitude Speed Heading
2026-05-05 19:26 52.32905 -1.62465 19006 ft 410 kts 140°
2026-05-05 19:26 52.30754 -1.59402 19000 ft 410 kts 140°
2026-05-05 19:26 52.28602 -1.56358 19000 ft 410 kts 140°
2026-05-05 19:27 52.27037 -1.54159 19000 ft 410 kts 140°
2026-05-05 19:27 52.26773 -1.53789 19000 ft 410 kts 141°
2026-05-05 19:28 52.24610 -1.50758 19001 ft 410 kts 140°
2026-05-05 19:28 52.22448 -1.47732 18999 ft 410 kts 140°
2026-05-05 19:28 52.20283 -1.44704 18999 ft 410 kts 141°
2026-05-05 19:28 52.18123 -1.41683 18997 ft 410 kts 141°
2026-05-05 19:29 52.15960 -1.38663 18997 ft 409 kts 140°
2026-05-05 19:29 52.13798 -1.35648 18962 ft 407 kts 141°
2026-05-05 19:29 52.11684 -1.32700 18730 ft 394 kts 141°
2026-05-05 19:29 52.09617 -1.29822 18492 ft 390 kts 141°
2026-05-05 19:30 52.07570 -1.26976 18103 ft 384 kts 140°
2026-05-05 19:30 52.05553 -1.24173 17564 ft 380 kts 140°
2026-05-05 19:30 52.03557 -1.21402 17050 ft 376 kts 140°
2026-05-05 19:30 52.01576 -1.18660 16505 ft 372 kts 141°
2026-05-05 19:31 51.99610 -1.15948 15996 ft 370 kts 141°
2026-05-05 19:31 51.97658 -1.13256 15464 ft 368 kts 141°
2026-05-05 19:31 51.95715 -1.10574 14938 ft 366 kts 141°
2026-05-05 19:31 51.93747 -1.07865 14122 ft 375 kts 141°
2026-05-05 19:32 51.91802 -1.05188 13893 ft 354 kts 141°
2026-05-05 19:32 51.89996 -1.02703 13767 ft 328 kts 141°
2026-05-05 19:32 51.88321 -1.00401 13643 ft 305 kts 141°
2026-05-05 19:32 51.86776 -0.98276 13439 ft 287 kts 141°
2026-05-05 19:33 51.85381 -0.96026 12948 ft 282 kts 127°
2026-05-05 19:33 51.84395 -0.93309 12385 ft 280 kts 115°
2026-05-05 19:33 51.83547 -0.90482 11801 ft 278 kts 116°
2026-05-05 19:33 51.82697 -0.87691 11276 ft 275 kts 116°
2026-05-05 19:34 51.81857 -0.84951 10856 ft 270 kts 116°
2026-05-05 19:34 51.81020 -0.82227 10488 ft 271 kts 115°
2026-05-05 19:34 51.80183 -0.79501 10121 ft 271 kts 115°
2026-05-05 19:35 51.78510 -0.74065 9387 ft 268 kts 115°
2026-05-05 19:35 51.77687 -0.71396 9010 ft 263 kts 115°
2026-05-05 19:35 51.76880 -0.68787 8751 ft 259 kts 115°
2026-05-05 19:35 51.76075 -0.66187 8567 ft 259 kts 115°
2026-05-05 19:36 51.75273 -0.63598 8378 ft 257 kts 115°
2026-05-05 19:36 51.74475 -0.61021 8205 ft 256 kts 115°
2026-05-05 19:36 51.73574 -0.58572 8107 ft 257 kts 133°
2026-05-05 19:36 51.72091 -0.57021 8067 ft 257 kts 165°
2026-05-05 19:37 51.70339 -0.56954 7937 ft 254 kts 198°
2026-05-05 19:37 51.68743 -0.58268 7948 ft 274 kts 223°
2026-05-05 19:37 51.67376 -0.60503 7941 ft 277 kts 230°
2026-05-05 19:37 51.66131 -0.62787 7943 ft 271 kts 231°
2026-05-05 19:38 51.64897 -0.65087 7950 ft 271 kts 231°
2026-05-05 19:38 51.63666 -0.67388 7940 ft 271 kts 231°
2026-05-05 19:38 51.62439 -0.69685 7622 ft 269 kts 231°
2026-05-05 19:38 51.61246 -0.71920 7296 ft 256 kts 231°
2026-05-05 19:39 51.60114 -0.74045 7007 ft 246 kts 231°
2026-05-05 19:39 51.59018 -0.76104 7015 ft 244 kts 231°
2026-05-05 19:39 51.57912 -0.78181 7020 ft 243 kts 231°
2026-05-05 19:39 51.56858 -0.80163 7022 ft 222 kts 231°
2026-05-05 19:40 51.55899 -0.81957 7037 ft 205 kts 231°
2026-05-05 19:40 51.54958 -0.83670 7058 ft 205 kts 225°
2026-05-05 19:40 51.53697 -0.84682 7039 ft 206 kts 190°
2026-05-05 19:40 51.52268 -0.84886 7016 ft 206 kts 182°
2026-05-05 19:41 51.50829 -0.84953 6895 ft 208 kts 181°
2026-05-05 19:41 51.49355 -0.85005 6236 ft 217 kts 181°
2026-05-05 19:41 51.47821 -0.85009 5535 ft 222 kts 178°
2026-05-05 19:41 51.46282 -0.85042 4937 ft 220 kts 180°
2026-05-05 19:42 51.44757 -0.85043 4351 ft 218 kts 170°
2026-05-05 19:42 51.43430 -0.84047 3792 ft 210 kts 133°
2026-05-05 19:42 51.42741 -0.82078 3219 ft 202 kts 96°
2026-05-05 19:42 51.42921 -0.80014 3005 ft 174 kts 66°
2026-05-05 19:43 51.43368 -0.78397 3002 ft 150 kts 62°
2026-05-05 19:43 51.43839 -0.76840 3010 ft 156 kts 61°
2026-05-05 19:43 51.44313 -0.75299 3005 ft 150 kts 61°
2026-05-05 19:43 51.44773 -0.73802 2875 ft 149 kts 61°
2026-05-05 19:44 51.45237 -0.72301 2649 ft 154 kts 62°
2026-05-05 19:44 51.45722 -0.70756 2538 ft 156 kts 61°
2026-05-05 19:44 51.46279 -0.69275 2516 ft 156 kts 41°
2026-05-05 19:44 51.47245 -0.68528 2500 ft 153 kts 20°
2026-05-05 19:45 51.47823 -0.67969 2461 ft 146 kts 52°
2026-05-05 19:45 51.48079 -0.66404 2505 ft 152 kts 94°
2026-05-05 19:45 51.47800 -0.64718 2307 ft 160 kts 98°
2026-05-05 19:45 51.47723 -0.62941 1982 ft 157 kts 89°
2026-05-05 19:46 51.47706 -0.61253 1748 ft 147 kts 88°
2026-05-05 19:46 51.47705 -0.59655 1527 ft 139 kts 88°
2026-05-05 19:46 51.47708 -0.58120 1328 ft 137 kts 88°
2026-05-05 19:46 51.47714 -0.56589 1133 ft 137 kts 88°
2026-05-05 19:47 51.47720 -0.55057 935 ft 137 kts 87°
2026-05-05 19:47 51.47727 -0.53529 741 ft 136 kts 87°
2026-05-05 19:47 51.47733 -0.52005 557 ft 137 kts 87°
2026-05-05 19:47 51.47740 -0.50493 379 ft 135 kts 86°
2026-05-05 19:48 51.47745 -0.48984 176 ft 135 kts 86°
2026-05-05 19:48 51.47750 -0.47547 84 ft 103 kts 90°
2026-05-05 19:48 51.47754 -0.46854 91 ft 42 kts 92°
2026-05-05 19:48 51.47759 -0.46385 92 ft 42 kts 91°
2026-05-05 19:49 51.47698 -0.46143 87 ft 17 kts 144°
2026-05-05 19:49 51.47653 -0.46091 86 ft 0 kts 146°
2026-05-05 19:50 51.47650 -0.46088 86 ft 3 kts 147°
2026-05-05 19:50 51.47625 -0.46065 85 ft 4 kts 156°
2026-05-05 19:51 51.47592 -0.46065 88 ft 5 kts 193°
2026-05-05 19:51 51.47537 -0.46100 91 ft 2 kts 204°
2026-05-05 19:51 51.47516 -0.46172 88 ft 10 kts 269°
2026-05-05 19:51 51.47518 -0.46350 87 ft 21 kts 268°
2026-05-05 19:52 51.47517 -0.46587 90 ft 20 kts 269°
2026-05-05 19:52 51.47502 -0.46754 89 ft 14 kts 252°
2026-05-05 19:52 51.47495 -0.46907 90 ft 13 kts 269°
2026-05-05 19:52 51.47495 -0.47031 91 ft 10 kts 271°
2026-05-05 19:53 51.47496 -0.47134 93 ft 9 kts 271°
2026-05-05 19:53 51.47494 -0.47243 88 ft 10 kts 267°
2026-05-05 19:53 51.47493 -0.47360 87 ft 10 kts 270°
2026-05-05 19:53 51.47491 -0.47452 88 ft 7 kts 269°
2026-05-05 19:54 51.47490 -0.47516 89 ft 5 kts 270°
2026-05-05 19:54 51.47491 -0.47573 89 ft 8 kts 271°
2026-05-05 19:54 51.47489 -0.47745 87 ft 23 kts 270°
2026-05-05 19:54 51.47491 -0.47976 89 ft 21 kts 270°
2026-05-05 19:55 51.47491 -0.48215 87 ft 23 kts 271°
2026-05-05 19:55 51.47488 -0.48483 90 ft 24 kts 272°
2026-05-05 19:55 51.47485 -0.48737 89 ft 20 kts 270°
2026-05-05 19:55 51.47467 -0.48921 91 ft 14 kts 221°
2026-05-05 19:56 51.47412 -0.48952 91 ft 0 kts 187°